User: anonymous   Login
Location: Prague
(50.0830°N, 14.4670°E)
Time: 12:56:23
(UTC+01:00)
Language:

STARLINK-1673 - Orbit

View from above orbital plane
View from above orbital plane
View from above satellite
View from above satellite

Ground track
Ground track

The orbit data is extracted from the following two-line orbital elements,

1 46327C 20062C   20330.17345892  .00003121  00000-0  21372-3 0  3303
2 46327  52.9959  43.0605 0001500  65.3829  11.7085 15.05584509    15
Epoch (UTC): 25 November 2020 04:09:46
Eccentricity: 0.0001500
inclination: 52.9959°
perigee height: 548 km
apogee height: 551 km
right ascension of ascending node: 43.0605°
argument of perigee: 65.3829°
revolutions per day: 15.05584509
mean anomaly at epoch: 11.7085°
orbit number at epoch: 1

The dashed part of the orbit path shows where the satellite is in the earth's shadow,  

DLR